sat.trackr.live / text

‹ back to catalog

STARLINK-30930

NORAD 58385 · 2023-178M

PAYLOAD ACTIVE UNKNOWN

§ Identity

Operator
Country
US
Launch date
2023-11-20
Launch site
AFWTR
Launch vehicle
Mass (kg)
RCS (m²)

Purposes: comms

External: N2YO · Heavens-Above · Gunter

§ Orbital elements

Epoch: 2026-09-20T00:58:55.935552Z

Period
93.85 min
Inclination
53.1598°
Eccentricity
0.0001085
Mean motion
15.34390200 rev/d
Perigee alt
462.0 km
Apogee alt
463.5 km
Semi-major
6,840.9 km
B*
2.0877e-5
RAAN
173.6431°
Arg perigee
87.7263°
Mean anomaly
272.3864°
Rev number
15,958

§ Raw data

STARLINK-309301 58385U 23178M   26263.04092518  .00000329  00000+0  20877-4 0  99992 58385  53.1598 173.6431 0001085  87.7263 272.3864 15.34390200159581

JSON: /api/v1/satellites/58385 · /tle

For live sub-satellite position, see the globe view (requires WebGL).

§ Visibility from observer

Set your observer location to see the next 7 days of passes ≥ 10°. The values pass through the URL so the page stays shareable.

No JS? Fill the form by hand. The geolocation button needs JavaScript.